Location: Amesbury
(51.1667°N, 1.7833°W)
Time: 06:15:03
(UTC+00:00)

Daily predictions for brighter satellites

Satellite Brightness Start Highest point End
(mag) Time Altitude Azimuth Time Altitude Azimuth Time Altitude Azimuth
NOSS 3-2 (A) 3.7 19:50:46 10° S 19:56:08 42° ESE 20:02:12 10° NE
SL-16 R/B 2.8 19:55:01 10° NNW 20:00:27 43° NE 20:05:50 10° ESE
SL-4 R/B 1.9 19:57:43 10° WSW 20:01:48 79° SSE 20:05:34 10° E
BREEZE-M DEB (TANK) 2.2 20:00:36 10° WSW 20:02:58 52° SSE 20:07:57 10° E
MONITOR-E 3.4 20:02:16 10° SSE 20:04:36 84° WSW 20:06:58 10° NNW
SL-27 R/B 4.4 20:05:33 10° ESE 20:06:23 11° E 20:07:12 10° E
NOSS 3-2 (C) 4.0 20:01:56 10° S 20:06:58 33° ESE 20:12:37 10° NE
Cosmos 1470 Rocket 4.3 20:04:05 10° SSE 20:08:01 33° E 20:11:56 10° NNE
Sich 1 3.2 20:04:17 10° SSW 20:08:43 84° W 20:13:12 10° N
BREEZE-M DEB (TANK) 2.0 20:06:56 10° W 20:10:26 57° S 20:12:22 10° E
Cosmos 2082 Rocket 2.2 20:05:54 10° SSW 20:11:35 77° ESE 20:17:16 10° NNE
MetOp-A 4.4 20:06:55 10° S 20:12:16 74° WSW 20:17:40 10° NNW
USA 186 3.7 20:11:45 10° SSW 20:13:29 19° W 20:15:15 10° NW
Meteor 1-4 Rocket 2.7 20:13:01 10° NNW 20:16:29 70° W 20:19:54 10° S
Cosmos 2322 Rocket 2.7 20:12:19 10° NNW 20:17:50 47° NE 20:23:14 10° SE
COSMOS 2406 4.4 20:12:49 10° SW 20:18:24 50° NW 20:23:59 10° NNE
Cosmos 2278 4.5 20:13:35 10° NW 20:19:08 52° WSW 20:24:37 10° S
Cosmos 1862 Rocket 3.6 20:15:46 10° N 20:20:15 76° E 20:24:40 10° SSE
ERS-1 Rocket 4.3 20:16:30 10° ESE 20:20:31 25° ENE 20:24:33 10° N
H-2A R/B 4.2 20:16:40 10° SSW 20:20:53 26° W 20:25:02 10° NW
Cosmos 841 Rocket 4.3 20:20:31 10° NNW 20:25:24 38° NE 20:29:56 12° ESE
Meteor 1-25 Rocket 4.4 20:21:10 10° SSE 20:26:32 50° E 20:32:00 10° NNE
Cosmos 2360 Rocket 3.2 20:21:39 10° NNW 20:26:51 35° NE 20:31:48 11° ESE
Cosmos 676 Rocket 4.0 20:21:50 10° SSW 20:27:09 77° ESE 20:32:31 10° NNE
USA 276 2.5 20:24:33 10° W 20:27:38 50° SSW 20:30:10 14° ESE
SPOT 1/Viking Rocket 4.3 20:23:32 10° SE 20:28:18 39° ENE 20:33:09 10° N
X-37B 2.1 20:25:47 10° WSW 20:28:20 23° S 20:30:22 13° SE
Meteor 1-18 Rocket 4.4 20:22:55 10° N 20:28:25 54° ENE 20:33:50 10° SSE
USA 32 4.2 20:24:15 10° SSE 20:29:20 54° E 20:34:26 10° NNE
Terra 3.5 20:28:02 10° ESE 20:31:25 20° ENE 20:34:49 10° NNE
ATLAS 3B R/B 3.7 20:27:44 10° SSE 20:32:21 20° ESE 20:37:00 10° ENE
IGS 5A 4.0 20:29:39 12° SE 20:33:19 44° ENE 20:37:17 10° N
Cosmos 1238 Rocket 2.7 20:30:44 10° SSE 20:33:28 37° E 20:36:22 10° NNE
Cosmos 468 Rocket 4.0 20:29:15 10° NNW 20:34:35 82° ENE 20:39:43 11° SSE
CZ-2C R/B 3.6 20:30:43 10° NNE 20:35:20 77° ESE 20:39:50 10° S
Cosmos 1980 Rocket 3.3 20:30:29 10° NW 20:35:49 43° WSW 20:41:06 10° S
Cosmos 44 3.4 20:31:21 10° NW 20:36:14 73° NE 20:40:36 14° SE
USA 234 3.6 20:29:51 10° E 20:36:18 64° NNE 20:42:45 10° WNW
Lacrosse 5 2.3 20:32:32 10° WNW 20:37:29 55° SW 20:41:50 13° SE
Cosmos 1934 Rocket 4.1 20:31:26 10° S 20:37:49 89° E 20:44:13 10° N
Resurs 01 Rocket 1.7 20:35:50 10° S 20:40:15 79° WSW 20:44:44 10° NNW
Cosmos 1602 4.1 20:38:14 10° SSE 20:41:59 45° E 20:45:46 10° NNE
GP-B 3.1 20:39:10 10° N 20:43:37 68° E 20:48:03 10° S
Cosmos 1833 Rocket 4.1 20:41:46 10° WSW 20:47:07 43° NW 20:52:31 10° NNE
SPOT 3 Rocket 4.3 20:43:12 10° S 20:48:17 54° W 20:53:24 10° NNW
Cosmos 1933 Rocket 3.7 20:44:08 10° S 20:48:27 58° E 20:52:51 10° NNE
Cosmos 1867 4.0 20:46:10 10° SW 20:51:35 66° NW 20:57:03 10° NE
COSMOS 2428 4.3 20:48:23 10° NNW 20:53:02 24° NE 20:57:39 10° E
Cosmos 1814 Rocket 4.4 20:48:06 10° NNW 20:53:12 49° ENE 20:56:56 18° SE
Cosmos 405 Rocket 2.5 20:51:04 10° S 20:54:45 71° E 20:58:32 10° NNE
Cosmos 1954 Rocket 4.4 20:50:02 10° SSW 20:55:21 69° WNW 21:00:41 10° NNE
Spot 2 Rocket 3.5 20:51:17 14° SSE 20:55:44 74° ENE 21:00:50 10° NNW
USA 238 DEB 3.7 20:49:49 10° SW 20:56:29 87° SE 21:03:30 10° NE
USA 238 3.7 20:49:56 10° SW 20:56:35 86° SE 21:03:36 10° NE
Cosmos 2237 Rocket 4.4 20:53:33 10° N 20:56:52 15° NNE 21:00:09 10° ENE
Cosmos 1515 3.7 20:53:12 10° N 20:57:01 63° ENE 20:59:36 19° SSE
Meteor 1-20 Rocket 4.3 20:51:37 10° S 20:57:28 87° E 21:03:22 10° NNE
Okean 1-7 3.1 20:54:33 10° N 20:58:51 62° ENE 21:01:51 19° SSE
CENTAUR R/B 2.5 20:53:49 10° SSW 20:59:45 64° SE 21:06:49 10° NE
Cosmos 1869 Rocket 4.4 20:57:44 19° SE 21:00:13 33° E 21:04:15 10° NNE
Cosmos 1741 Rocket 4.0 20:58:04 10° S 21:03:14 62° ESE 21:08:29 10° NNE
Cosmos 1437 Rocket 2.6 21:00:57 10° NNW 21:04:45 84° ENE 21:07:19 20° SSE
FALCON 9 DEB 3.5 21:02:46 10° W 21:06:15 65° N 21:09:36 11° ENE
OBJECT-B 3.4 21:05:19 10° SW 21:07:46 19° W 21:10:14 10° NW
Cosmos 1763 Rocket 3.9 21:03:34 10° NNW 21:08:51 64° WSW 21:13:14 15° S
Cosmos 1703 Rocket 3.5 21:04:49 10° N 21:09:11 87° ENE 21:12:20 18° S
H-2A R/B 3.3 21:05:59 10° NNE 21:10:08 80° ESE 21:14:17 10° SSW
Cosmos 1570 Rocket 4.0 21:05:58 10° NNW 21:11:20 80° ENE 21:14:57 21° SSE
Cosmos 2333 Rocket 3.3 21:06:07 10° NNW 21:11:21 34° NE 21:15:19 16° ESE
ATLAS 5 CENTAUR R/B 2.2 21:09:40 10° NW 21:11:59 46° NE 21:14:58 18° ESE
Cosmos 2084 Rocket 3.3 21:09:38 10° SW 21:13:49 69° SE 21:18:07 10° NE
FAST 4.4 21:11:55 10° N 21:14:33 90° NNE 21:15:48 30° S
SWARM A 4.3 21:14:18 10° N 21:17:37 59° E 21:18:54 33° SSE
Landsat 7 4.0 21:15:20 16° S 21:19:08 72° WSW 21:23:55 10° NNW
SPOT 5 2.8 21:17:39 26° SE 21:19:57 57° ENE 21:24:22 10° N
Cosmos 2208 Rocket 4.0 21:17:33 10° NNW 21:22:51 83° ENE 21:25:58 25° SSE
ERBS 3.5 21:25:08 10° NW 21:28:15 36° NNE 21:30:12 19° ENE
Okean 1 4.4 21:24:41 10° NNW 21:28:33 43° W 21:31:48 14° SSW
Cosmos 1733 Rocket 4.3 21:29:41 23° E 21:30:20 24° E 21:33:52 10° NE
Meteor 1-11 Rocket 4.3 21:31:46 26° SE 21:34:19 40° E 21:39:43 10° NNE
Lacrosse 4 Rocket 2.4 21:37:38 27° E 21:37:38 27° E 21:40:46 10° NE
GENESIS II 4.4 21:35:52 10° NW 21:39:52 64° NE 21:41:16 37° ESE
SL-27 R/B 2.7 21:37:56 12° SW 21:40:57 62° WNW 21:44:16 10° NNE
Meteor 2-4 Rocket 3.8 21:35:35 10° NNW 21:41:13 76° W 21:44:40 23° S
Cosmos 2219 Rocket 2.9 21:35:53 10° NNW 21:41:20 44° NE 21:44:23 24° ESE
SL-4 R/B 1.7 21:37:33 10° W 21:41:27 84° N 21:42:58 34° E
Cosmos 540 Rocket 3.7 21:36:26 10° NNW 21:41:34 64° WSW 21:44:28 26° S
Cosmos 2100 Rocket 3.9 21:36:57 18° S 21:41:36 75° E 21:47:46 10° NNE
USA 267 3.3 21:35:53 10° ENE 21:42:15 52° SE 21:48:37 10° SW
SL-16 R/B 3.1 21:39:16 10° NW 21:44:34 41° WSW 21:48:20 18° S
Cosmos 2173 Rocket 3.9 21:41:11 20° S 21:45:35 75° E 21:51:42 10° NNE
NOSS 3-2 (A) 4.2 21:40:59 10° WSW 21:46:49 56° NW 21:53:37 10° NE
Cosmos 1242 Rocket 3.1 21:46:55 10° N 21:50:25 42° ENE 21:50:53 39° E
SAR-Lupe-2 3.4 21:49:39 10° NNE 21:53:16 75° ESE 21:54:05 51° S
Cosmos 2322 3.8 21:49:12 10° NNW 21:54:53 71° ENE 21:57:25 34° SE
Cosmos 2082 Rocket 4.4 21:51:28 10° W 21:56:17 27° NW 22:01:05 10° NNE
NOSS 3-2 (C) 3.9 21:51:30 10° WSW 21:57:23 67° NW 22:04:14 10° NE
Cosmos 1725 Rocket 4.2 21:55:18 31° SSE 21:58:13 55° E 22:04:23 10° NNE
Cosmos 1459 Rocket 4.0 21:53:46 19° S 21:58:29 89° E 22:04:55 10° N
ERS-1 Rocket 3.3 21:56:14 26° S 21:58:58 59° WSW 22:03:57 10° NNW
Cosmos 2346 Rocket 4.4 21:54:27 10° N 22:00:33 83° E 22:03:31 32° SSE
Meteor 1-13 Rocket 4.1 21:55:12 10° NNW 22:00:45 83° W 22:03:23 32° S
Cosmos 1833 4.3 21:58:11 30° S 22:00:51 55° ESE 22:06:23 10° NE
Cosmos 2322 Rocket 3.3 21:56:35 10° NW 22:01:48 37° WSW 22:05:03 20° SSW
Cosmos 1500 3.6 22:00:28 29° SSW 22:02:10 60° WNW 22:05:54 10° N
Cosmos 1536 2.9 22:03:04 50° ESE 22:03:26 52° E 22:07:18 10° NNE
USA 276 4.5 22:01:24 10° WSW 22:02:32 14° SW 22:02:32 14° SW
Cosmos 1378 Rocket 4.3 21:59:47 10° N 22:04:00 39° ENE 22:04:52 35° E
Cosmos 2221 Rocket 3.6 21:59:35 10° NNW 22:04:06 85° W 22:05:37 42° S
Cosmos 2016 Rocket 4.0 22:02:21 28° S 22:05:50 73° E 22:12:13 10° NNE
Okean 3 3.8 22:02:52 10° NNW 22:07:09 64° W 22:08:39 38° SSW
Cosmos 841 Rocket 4.5 22:02:28 10° NW 22:07:20 40° WSW 22:10:01 23° SSW
Terra 1.9 22:06:49 37° S 22:08:41 72° WSW 22:13:28 10° NNW
Cosmos 2333 4.2 22:03:58 10° NNW 22:09:49 87° ENE 22:12:06 39° SSE
Cosmos 2360 Rocket 2.6 22:05:36 10° NW 22:11:08 55° WSW 22:13:33 32° S
COSMOS 2487 2.9 22:12:28 48° ENE 22:12:28 48° ENE 22:15:15 10° NNE
SL-16 R/B 4.4 22:08:40 10° NNW 22:12:39 19° NNE 22:16:35 10° ENE
Cosmos 1666 2.5 22:12:27 68° S 22:12:52 82° E 22:16:40 10° NNE
Resurs 01 Rocket 4.5 22:16:33 10° W 22:17:31 11° W 22:18:29 10° WNW
USA 234 3.3 22:16:21 35° SE 22:19:20 69° SW 22:25:53 10° WNW
Lacrosse 5 4.1 22:17:20 10° W 22:19:29 13° WSW 22:21:01 11° SW
Iridium 4 Rocket 3.3 22:18:30 38° SSW 22:19:56 62° W 22:24:05 10° N
Cosmos 1864 Rocket 4.4 22:17:15 33° S 22:20:12 78° E 22:26:31 10° NNE
Cosmos 1378 3.4 22:17:36 10° N 22:21:16 51° ENE 22:21:16 51° ENE
MOS 1-B Rocket 4.1 22:16:26 10° NNE 22:21:51 47° E 22:23:10 40° SE
ATLAS 3B R/B 2.5 22:15:30 10° SW 22:22:05 82° SE 22:28:48 10° NE
Cosmos 1975 Rocket 4.5 22:22:50 10° N 22:26:38 26° ENE 22:27:17 25° E
Cosmos 2297 Rocket 4.2 22:32:12 13° E 22:32:12 13° E 22:34:04 10° ENE
Okean 2 4.3 22:30:31 10° N 22:34:21 36° ENE 22:34:30 36° ENE
Cosmos 1980 4.5 22:29:12 10° NNW 22:34:39 44° NE 22:36:58 30° ESE
Thor Agena Rocket 4.2 22:30:01 10° NNE 22:34:46 37° E 22:35:03 37° ESE
Cosmos 1743 3.4 22:35:21 43° ENE 22:35:21 43° ENE 22:38:37 10° NNE
Cosmos 1975 4.4 22:36:14 23° ENE 22:36:14 23° ENE 22:38:52 10° NE
Cosmos 2233 Rocket 4.0 22:34:09 42° SSE 22:36:20 68° E 22:42:38 10° NNE
COSMOS 2428 2.7 22:32:19 10° NNW 22:38:07 89° ENE 22:39:48 48° SSE
Cosmos 2061 Rocket 4.2 22:35:41 27° SSW 22:39:13 70° WNW 22:45:25 10° N
Cosmos 44 Rocket 3.3 22:37:04 10° NW 22:42:03 74° SW 22:42:56 58° S
Cosmos 2237 Rocket 2.9 22:36:58 10° NNW 22:42:25 46° NE 22:44:34 32° ESE
FALCON 9 DEB 3.7 22:39:58 10° WNW 22:42:51 57° WNW 22:42:51 57° WNW
Cosmos 1271 Rocket 2.6 22:40:50 10° NNW 22:44:31 81° NNE 22:44:31 81° NNE
NOSS 0 Rocket 4.0 22:43:25 10° NNW 22:49:41 74° NE 22:51:50 43° SE
Cosmos 1674 Rocket 3.7 22:46:12 10° NNW 22:50:30 61° W 22:51:00 56° SW
CENTAUR R/B 3.7 22:44:38 10° WSW 22:50:48 47° NNW 22:58:05 10° NE
Cosmos 2333 Rocket 2.4 22:50:18 10° NW 22:55:59 59° WSW 22:57:19 47° SSW
Cosmos 1503 Rocket 4.0 22:58:14 57° SE 22:58:48 61° ESE 23:04:05 10° NNE
Geosat 3.9 22:58:12 59° SE 22:59:11 84° ENE 23:04:15 10° NNW
Cosmos 1486 Rocket 4.0 23:02:24 46° SW 23:03:58 78° WNW 23:09:12 10° NNE
ERBS 4.0 23:01:25 10° WNW 23:03:07 27° WNW 23:03:07 27° WNW
Cosmos 1733 Rocket 4.0 23:06:45 35° WSW 23:07:53 43° WNW 23:12:08 10° N
Meteor 2-11 Rocket 4.3 23:06:27 51° S 23:08:04 81° E 23:14:14 10° NNE
DNEPR-1 R/B 4.3 23:07:09 10° NW 23:13:17 66° NE 23:14:43 47° ESE
Lacrosse 4 Rocket 2.4 23:13:52 27° WSW 23:15:41 43° NW 23:19:42 10° NNE
Cosmos 773 Rocket 3.9 23:11:46 10° NNW 23:16:56 75° ENE 23:17:38 64° ESE
ALOS 2 2.5 23:17:00 73° E 23:17:03 74° ENE 23:21:28 10° N
Helios 1A 4.1 23:18:09 33° ENE 23:18:25 33° ENE 23:22:13 10° N
Cosmos 968 Rocket 3.6 23:17:24 47° SW 23:18:47 69° WNW 23:23:57 10° NNE
SL-4 R/B 3.9 23:17:20 10° W 23:18:32 19° W 23:18:32 19° W
Cosmos 2227 Rocket 3.4 23:22:00 27° E 23:22:00 27° E 23:26:19 10° NE
Cosmos 1072 Rocket 4.5 23:20:37 52° SE 23:21:49 63° E 23:27:52 10° NNE
Cosmos 1707 3.8 23:18:29 10° N 23:21:46 36° ENE 23:21:46 36° ENE
Cosmos 2219 Rocket 2.9 23:20:01 10° NW 23:25:17 40° WSW 23:26:05 38° SW
USA 267 3.4 23:18:58 10° ENE 23:25:30 74° NNW 23:32:01 10° WSW
EO 1 Del DPAF 3.7 23:25:06 10° NNE 23:28:12 58° NNE 23:28:12 58° NNE
Cosmos 1538 Rocket 4.0 23:29:41 10° NNW 23:34:53 70° ENE 23:35:35 61° ESE
Cosmos 1782 Rocket 3.5 23:35:17 78° NNE 23:35:17 78° NNE 23:39:22 10° N
Cosmos 1842 3.9 23:33:52 10° NNW 23:37:09 51° WNW 23:37:09 51° WNW
Cosmos 1908 Rocket 4.1 23:41:58 47° W 23:42:13 47° WNW 23:46:27 10° N
Cosmos 1607 4.0 23:38:42 10° NW 23:45:12 78° NE 23:47:26 44° SE
Terra 4.3 23:46:24 10° W 23:47:19 10° W 23:48:13 10° WNW
Helios 1B rocket 4.5 23:52:03 10° NE 23:54:18 18° ENE 23:54:18 18° ENE
